Weather History for KABY - January, 2014

Change the Weather History Date:

Sunday, January 19, 2014

  Actual Average Record
Temperature  
Mean Temperature 47 °F 49 °F  
Max Temperature 62 °F 61 °F 79 °F (2001)
Min Temperature 32 °F 38 °F 9 °F (1977)
Degree Days  
Heating Degree Days 18 16  
Month to date heating degree days 359 304  
Since 1 July heating degree days 985 1017  
Cooling Degree Days 0 0  
Month to date cooling degree days 0 0  
Year to date cooling degree days 0 0  
Moisture  
Dew Point 33 °F    
Average Humidity 61    
Maximum Humidity 89    
Minimum Humidity 32    
Precipitation  
Precipitation T in - 1.10 in (2008)
Month to date precipitation 1.29  
Year to date precipitation 1.29  
Sea Level Pressure  
Sea Level Pressure 30.13 in    
Wind  
Wind Speed 6 mph (West)    
Max Wind Speed 22 mph    
Max Gust Speed 31 mph    
Visibility 10 miles    
Events      
T = Trace of Precipitation, MM = Missing Value Source: NWS Daily Summary

Daily Weather History Graph

Daily Weather History Graph

Search for Another Location

Airport or City:

Trip Planner

Search our weather history database for the weather conditions in past years. The results will help you decide how hot, cold, wet, or windy it might be!

Date:

Astronomy

Jan. 19, 2014 Rise Set
Actual Time 7:35 AM EST 5:59 PM EST
Civil Twilight 7:09 AM EST 6:25 PM EST
Nautical Twilight 6:39 AM EST 6:55 PM EST
Astronomical Twilight 6:10 AM EST 7:24 PM EST
Moon 9:20 PM EST (1/19) 9:19 AM EST (1/19)
Length of Visible Light 11h 16m
Length of Day
10h 24m
Waning Gibbous, 89% of the Moon is Illuminated
Jan 19
Waning Gibbous
Jan 24
Last Quarter
Jan 30
New
Feb 6
First Quarter
Feb 14
Full

Hourly Weather History & Observations

Time (EST) Temp. Windchill Dew Point Humidity Pressure Visibility Wind Dir Wind Speed Gust Speed Precip Events Conditions
12:53 AM 36.0 °F 32.1 °F 23.0 °F 59% 30.13 in 10.0 mi South 4.6 mph - N/A   Clear
1:53 AM 35.1 °F 31.0 °F 25.0 °F 67% 30.12 in 10.0 mi SSW 4.6 mph - N/A   Clear
2:53 AM 36.0 °F - 26.1 °F 67% 30.12 in 10.0 mi Calm Calm - N/A   Clear
3:53 AM 35.1 °F - 28.0 °F 76% 30.13 in 10.0 mi Calm Calm - N/A   Overcast
4:53 AM 37.0 °F 34.5 °F 30.9 °F 79% 30.12 in 10.0 mi South 3.5 mph - N/A   Overcast
5:53 AM 39.9 °F 35.1 °F 33.1 °F 77% 30.09 in 10.0 mi SSW 6.9 mph - N/A   Clear
6:53 AM 41.0 °F 39.0 °F 35.1 °F 79% 30.09 in 10.0 mi SSW 3.5 mph - N/A   Mostly Cloudy
7:53 AM 44.1 °F 40.1 °F 39.0 °F 82% 30.13 in 10.0 mi WSW 6.9 mph - 0.00 in   Overcast
8:53 AM 43.0 °F 41.3 °F 39.9 °F 89% 30.13 in 10.0 mi SW 3.5 mph - N/A   Scattered Clouds
9:53 AM 51.1 °F - 43.0 °F 74% 30.15 in 10.0 mi West 9.2 mph 17.3 mph N/A   Clear
10:53 AM 54.0 °F - 39.9 °F 59% 30.16 in 10.0 mi NW 10.4 mph - N/A   Partly Cloudy
10:55 AM 53.6 °F - 39.2 °F 58% 30.16 in 10.0 mi NW 10.4 mph - N/A   Partly Cloudy
11:53 AM 57.0 °F - 37.9 °F 49% 30.16 in 10.0 mi WNW 11.5 mph 18.4 mph N/A   Partly Cloudy
12:53 PM 59.0 °F - 36.0 °F 42% 30.13 in 10.0 mi West 12.7 mph 17.3 mph N/A   Clear
1:53 PM 60.1 °F - 32.0 °F 35% 30.10 in 10.0 mi WNW 11.5 mph 21.9 mph N/A   Clear
2:53 PM 61.0 °F - 30.9 °F 32% 30.10 in 10.0 mi NW 17.3 mph 20.7 mph N/A   Clear
3:53 PM 60.1 °F - 32.0 °F 35% 30.12 in 10.0 mi West 11.5 mph 17.3 mph N/A   Clear
4:53 PM 59.0 °F - 30.0 °F 33% 30.12 in 10.0 mi NW 8.1 mph - N/A   Clear
5:53 PM 55.9 °F - 30.0 °F 37% 30.12 in 10.0 mi WNW 3.5 mph - N/A   Clear
6:53 PM 46.9 °F - 33.1 °F 59% 30.12 in 10.0 mi West 3.5 mph - N/A   Clear
7:53 PM 43.0 °F - 33.1 °F 68% 30.14 in 10.0 mi Calm Calm - N/A   Clear
8:53 PM 42.1 °F - 34.0 °F 73% 30.14 in 10.0 mi Calm Calm - N/A   Clear
9:53 PM 39.0 °F - 33.1 °F 79% 30.15 in 10.0 mi Calm Calm - N/A   Clear
10:53 PM 37.0 °F - 32.0 °F 82% 30.16 in 10.0 mi Calm Calm - N/A   Clear
11:53 PM 35.1 °F - 30.9 °F 85% 30.15 in 10.0 mi Calm Calm - N/A   Clear